This is the latest recevied weather packets stored in our database for station/object AD5L. If no packets are shown the sender has not sent any weather packets the latest 10 day(s).
| Time | Temp. | Humidity | Pressure | Rain* | Wind** | Luminosity | Snow |
|---|---|---|---|---|---|---|---|
| 1777784616 | 12.22° C | 90% | 1022 hPa | 0 mm | - | - | - |
| 1777784027 | 12.78° C | 90% | 1022 hPa | 0 mm | - | - | - |
| 1777783410 | 12.78° C | 89% | 1021.9 hPa | 0 mm | - | - | - |
| 1777782802 | 13.33° C | 89% | 1021.9 hPa | 0 mm | - | - | - |
| 1777781605 | 13.33° C | 88% | 1021.8 hPa | 0 mm | - | - | - |
| 1777781016 | 13.89° C | 88% | 1021.8 hPa | 0 mm | - | - | - |
| 1777780407 | 13.89° C | 86% | 1021.9 hPa | 0 mm | - | - | - |
| 1777779819 | 14.44° C | 86% | 1021.8 hPa | 0 mm | - | - | - |
| 1777779212 | 14.44° C | 85% | 1021.6 hPa | 0 mm | - | - | - |
| 1777778603 | 14.44° C | 83% | 1021.7 hPa | 0 mm | - | - | - |
| 1777778014 | 14.44° C | 84% | 1021.5 hPa | 0 mm | - | - | - |
| 1777777404 | 15° C | 82% | 1021.5 hPa | 0 mm | - | - | - |
| 1777776815 | 15.56° C | 78% | 1021.4 hPa | 0 mm | - | - | - |
| 1777776207 | 16.11° C | 78% | 1021.3 hPa | 0 mm | - | - | - |
| 1777775614 | 16.11° C | 77% | 1021.1 hPa | 0 mm | - | - | - |
| 1777775024 | 16.67° C | 75% | 1020.9 hPa | 0 mm | - | - | - |
| 1777774413 | 17.22° C | 70% | 1020.8 hPa | 0 mm | - | - | - |
| 1777773825 | 17.78° C | 67% | 1020.8 hPa | 0 mm | - | - | - |
| 1777773208 | 18.33° C | 65% | 1020.8 hPa | 0 mm | - | - | - |
| 1777772627 | 18.89° C | 64% | 1020.7 hPa | 0 mm | - | - | - |
| 1777772009 | 19.44° C | 62% | 1020.8 hPa | 0 mm | - | - | - |
| 1777771420 | 20° C | 59% | 1020.6 hPa | 0 mm | - | - | - |
| 1777770811 | 20.56° C | 56% | 1020.4 hPa | 0 mm | - | - | - |
| 1777770221 | 21.11° C | 53% | 1020.3 hPa | 0 mm | - | - | - |
| 1777769612 | 21.67° C | 52% | 1020.3 hPa | 0 mm | - | - | - |
* Rain latest hour (hover to see other rain measurements)
** Current wind speed in m/s (hover to see current wind gust speed)